Location: Staunton
(38.1490°N, 79.0720°W)
Time: 23:43:06
(UTC-05:00)

ISS - Pass Details

Date: 23 January 2021
Orbit: 418 x 421 km, 51.6° (Epoch: 23 January)

Event Time Altitude Azimuth Distance (km) Brightness Sun altitude
Rises 18:05:08 0° 262° (W) 2,360 2.2 -7.4°
Reaches altitude 10° 18:07:32 10° 278° (W) 1,499 0.2 -7.8°
Maximum altitude 18:10:16 23° 332° (NNW) 957 -1.8 -8.3°
Drops below altitude 10° 18:13:01 10° 27° (NNE) 1,505 -1.4 -8.8°
Enters shadow 18:13:42 - 33° (NNE) 1,740 -1.1 -9.0°
